Findlay, OH

9:02 AM EDT on September 29, 2016 (GMT -0400)
Findlay

Weather History for KFDY - December, 2013

Change the Weather History Date:

Tuesday, December 10, 2013

  Actual Average Record
Temperature  
Mean Temperature 20 °F -  
Max Temperature 25 °F 36 °F 65 °F (1971)
Min Temperature 14 °F 24 °F -7 °F (1958)
Degree Days  
Heating Degree Days 46    
Moisture  
Dew Point 10 °F    
Average Humidity 65    
Maximum Humidity 74    
Minimum Humidity 47    
Precipitation  
Precipitation 0.00 in - - ()
Sea Level Pressure  
Sea Level Pressure 30.15 in    
Wind  
Wind Speed 14 mph (WSW)    
Max Wind Speed 23 mph    
Max Gust Speed 33 mph    
Visibility 10 miles    
Events      
Averages and records for this station are not official NWS values.
T = Trace of Precipitation, MM = Missing Value Source: NWS Daily Summary

Daily Weather History Graph

Daily Weather History Graph

Search for Another Location

Airport or City:

Trip Planner

Search our weather history database for the weather conditions in past years. The results will help you decide how hot, cold, wet, or windy it might be!

Date:

Astronomy

Dec. 10, 2013 Rise Set
Actual Time 7:48 AM EST 5:06 PM EST
Civil Twilight 7:17 AM EST 5:37 PM EST
Nautical Twilight 6:43 AM EST 6:11 PM EST
Astronomical Twilight 6:09 AM EST 6:45 PM EST
Moon 1:09 PM EST (12/10) 1:03 AM EST (12/10)
Length of Visible Light 10h 19m
Length of Day
9h 17m
First Quarter, 61% of the Moon is Illuminated
Dec 10
First Quarter
Dec 17
Full
Dec 25
Last Quarter
Jan 1
New
Jan 7
First Quarter

Hourly Weather History & Observations

Time (EST) Temp. Windchill Dew Point Humidity Pressure Visibility Wind Dir Wind Speed Gust Speed Precip Events Conditions
12:53 AM 19.9 °F 5.7 °F 12.9 °F 74% 30.17 in 10.0 mi WSW 16.1 mph - N/A   Overcast
1:53 AM 19.9 °F 7.9 °F 12.9 °F 74% 30.17 in 10.0 mi WSW 11.5 mph - N/A   Overcast
2:53 AM 19.0 °F 5.6 °F 9.0 °F 65% 30.17 in 10.0 mi West 13.8 mph - N/A   Overcast
3:53 AM 19.0 °F 7.5 °F 9.0 °F 65% 30.14 in 10.0 mi West 10.4 mph - N/A   Overcast
4:53 AM 18.0 °F 6.1 °F 9.0 °F 68% 30.14 in 10.0 mi West 10.4 mph - N/A   Overcast
5:53 AM 18.0 °F 4.8 °F 10.9 °F 74% 30.12 in 10.0 mi West 12.7 mph - N/A   Mostly Cloudy
6:53 AM 16.0 °F 5.3 °F 8.1 °F 71% 30.14 in 10.0 mi West 8.1 mph - N/A   Scattered Clouds
7:53 AM 15.1 °F 2.5 °F 7.0 °F 70% 30.15 in 10.0 mi West 10.4 mph - N/A   Mostly Cloudy
8:53 AM 14.0 °F 2.9 °F 6.1 °F 71% 30.15 in 10.0 mi WSW 8.1 mph - N/A   Clear
9:53 AM 16.0 °F 3.6 °F 7.0 °F 68% 30.15 in 10.0 mi WSW 10.4 mph - N/A   Clear
10:53 AM 19.0 °F 4.0 °F 1.9 °F 47% 30.13 in 10.0 mi WSW 17.3 mph 23.0 mph N/A   Partly Cloudy
11:53 AM 21.9 °F 8.7 °F 7.0 °F 53% 30.10 in 10.0 mi SW 15.0 mph - N/A   Scattered Clouds
12:53 PM 23.0 °F 8.0 °F 9.0 °F 55% 30.06 in 10.0 mi SSW 20.7 mph 28.8 mph N/A   Clear
1:53 PM 25.0 °F 10.9 °F 9.0 °F 51% 30.05 in 10.0 mi WSW 19.6 mph 31.1 mph N/A   Mostly Cloudy
2:53 PM 25.0 °F 10.2 °F 10.9 °F 55% 30.06 in 10.0 mi SW 21.9 mph 33.4 mph N/A   Mostly Cloudy
3:53 PM 25.0 °F 9.9 °F 12.0 °F 58% 30.07 in 10.0 mi WSW 23.0 mph 32.2 mph N/A   Clear
4:53 PM 24.1 °F 11.0 °F 12.9 °F 62% 30.11 in 10.0 mi WSW 16.1 mph - N/A   Partly Cloudy
5:53 PM 23.0 °F 9.2 °F 10.9 °F 60% 30.14 in 10.0 mi West 17.3 mph - N/A   Clear
6:53 PM 21.0 °F 8.1 °F 10.9 °F 65% 30.17 in 10.0 mi WSW 13.8 mph - N/A   Clear
7:53 PM 21.0 °F 6.6 °F 10.9 °F 65% 30.20 in 10.0 mi WSW 17.3 mph - N/A   Clear
8:53 PM 19.9 °F 6.2 °F 12.0 °F 71% 30.21 in 10.0 mi WSW 15.0 mph - N/A   Clear
9:53 PM 19.9 °F 6.7 °F 12.0 °F 71% 30.22 in 10.0 mi WSW 13.8 mph - N/A   Clear
10:53 PM 19.0 °F 5.0 °F 10.9 °F 71% 30.26 in 10.0 mi West 15.0 mph - N/A   Clear
11:53 PM 18.0 °F 6.1 °F 10.0 °F 71% 30.27 in 10.0 mi WSW 10.4 mph - N/A   Clear